Location: Unspecified
(0.0000°N, 0.0000°E)
Time: 15:24:02
(UTC+00:00)

Courier 1B Rocket - All Passes

Search period start: 13 December 2018 00:00
Search period end: 23 December 2018 00:00
Orbit: 920 x 1202 km, 28.2° (Epoch: 12 December)

Date Brightness Start Highest point End Pass type
(mag) Time Alt. Az. Time Alt. Az. Time Alt. Az.
13 Dec - 04:28:19 10° SSW 04:33:36 28° SSE 04:38:54 10° E visible
13 Dec - 06:20:47 10° WSW 06:27:02 75° NNW 06:33:33 10° NE daylight
13 Dec - 08:16:03 10° WNW 08:20:47 21° NNW 08:25:44 10° NNE daylight
13 Dec - 15:56:26 10° NNW 16:03:00 29° NNE 16:09:33 10° E daylight
13 Dec - 17:49:10 10° WNW 17:57:04 88° NNE 18:04:43 10° ESE daylight
13 Dec - 19:44:29 10° W 19:51:00 29° SSW 19:57:15 10° SSE visible
14 Dec - 03:28:08 10° SSW 03:32:26 19° SSE 03:36:40 10° ESE visible
14 Dec - 05:19:50 10° SW 05:26:03 71° SSE 05:32:23 10° ENE visible
14 Dec - 07:14:05 10° W 07:19:33 31° NNW 07:25:15 10° NNE daylight
14 Dec - 14:56:00 10° NNW 15:01:27 21° NNE 15:06:59 10° ENE daylight
14 Dec - 16:48:00 10° NW 16:55:43 62° NNE 17:03:22 10° ESE daylight
14 Dec - 18:42:18 10° W 18:49:38 43° SSW 18:56:43 10° SE visible
14 Dec - 20:40:24 10° SW 20:44:00 14° SSW 20:47:32 10° S visible
15 Dec - 02:28:28 10° S 02:31:06 13° SSE 02:33:43 10° SE visible
15 Dec - 04:19:06 10° SW 04:25:04 45° SSE 04:31:00 10° E visible
15 Dec - 06:12:30 10° WSW 06:18:27 46° NNW 06:24:35 10° NE daylight
15 Dec - 08:09:25 10° NW 08:12:28 14° NNW 08:15:35 10° N daylight
15 Dec - 13:56:03 10° N 13:59:50 14° NNE 14:03:40 10° NE daylight
15 Dec - 15:47:05 10° NW 15:54:20 43° NNE 16:01:39 10° E daylight
15 Dec - 17:40:31 10° WNW 17:48:16 63° SSW 17:55:53 10° SE daylight
15 Dec - 19:36:59 10° WSW 19:42:26 20° SSW 19:47:45 10° SSE visible
16 Dec - 03:18:34 10° SSW 03:24:00 29° SSE 03:29:20 10° E visible
16 Dec - 05:11:12 10° WSW 05:17:27 73° NNW 05:23:44 10° NE visible
16 Dec - 07:06:42 10° WNW 07:11:07 20° NNW 07:15:39 10° NNE daylight
16 Dec - 14:46:27 10° NNW 14:52:54 30° NNE 14:59:30 10° E daylight
16 Dec - 16:39:05 10° WNW 16:46:55 90° ESE 16:54:46 10° ESE daylight
16 Dec - 18:34:20 10° W 18:40:57 30° SSW 18:47:26 10° SSE visible
17 Dec - 02:18:14 10° SSW 02:22:48 20° SSE 02:27:14 10° ESE visible
17 Dec - 04:10:10 10° SW 04:16:29 73° SSE 04:22:42 10° ENE visible
17 Dec - 06:04:37 10° W 06:09:55 29° NNW 06:15:20 10° NNE daylight
17 Dec - 13:46:09 10° NNW 13:51:25 20° NNE 13:56:52 10° ENE daylight
17 Dec - 15:37:59 10° NW 15:45:34 63° NNE 15:53:20 10° ESE daylight
17 Dec - 17:32:12 10° W 17:39:31 43° SSW 17:46:48 10° SE daylight
17 Dec - 19:30:09 10° SW 19:34:02 14° SSW 19:37:52 10° S visible
18 Dec - 01:18:16 10° S 01:21:27 14° SSE 01:24:33 10° SE night (unlit)
18 Dec - 03:09:19 10° SW 03:15:28 46° SSE 03:21:26 10° ENE visible
18 Dec - 05:02:56 10° W 05:08:52 45° NNW 05:14:48 10° NE visible
18 Dec - 07:00:16 10° NW 07:02:48 12° NNW 07:05:22 10° N daylight
18 Dec - 12:46:23 10° N 12:49:52 14° NNE 12:53:25 10° NE daylight
18 Dec - 14:37:10 10° NW 14:44:13 43° NNE 14:51:33 10° E daylight
18 Dec - 16:30:30 10° WNW 16:38:08 62° SSW 16:45:53 10° SE daylight
18 Dec - 18:26:51 10° WSW 18:32:24 21° SSW 18:37:54 10° SSE visible
19 Dec - 02:08:39 10° SSW 02:14:23 31° SSE 02:19:51 10° E visible
19 Dec - 04:01:32 10° WSW 04:07:53 71° NNW 04:14:05 10° NE visible
19 Dec - 05:57:16 10° WNW 06:01:29 19° NNW 06:05:44 10° NNE daylight
19 Dec - 13:36:38 10° NNW 13:42:52 29° NNE 13:49:21 10° E daylight
19 Dec - 15:29:09 10° WNW 15:36:47 88° SSW 15:44:41 10° ESE daylight
19 Dec - 17:24:17 10° W 17:30:52 29° SSW 17:37:27 10° SSE daylight
20 Dec - 01:08:09 10° SSW 01:13:08 21° SSE 01:17:53 10° ESE night (unlit)
20 Dec - 03:00:22 10° SW 03:06:54 75° SSE 03:13:08 10° ENE visible
20 Dec - 04:55:02 10° W 05:00:19 28° NNW 05:05:35 10° NNE visible
20 Dec - 12:36:28 10° NNW 12:41:28 20° NNE 12:46:39 10° ENE daylight
20 Dec - 14:28:08 10° NW 14:35:28 64° NNE 14:43:11 10° ESE daylight
20 Dec - 16:22:15 10° W 16:29:24 42° SSW 16:36:43 10° SE daylight
20 Dec - 18:20:04 10° SW 18:24:01 14° SSW 18:27:58 10° S visible
21 Dec - 00:07:55 10° SSW 00:11:43 15° SSE 00:15:24 10° SE night (unlit)
21 Dec - 01:59:23 10° SW 02:05:50 49° SSE 02:11:57 10° ENE visible
21 Dec - 03:53:12 10° W 03:59:17 43° NNW 04:05:10 10° NE visible
21 Dec - 05:50:58 10° NW 05:53:10 12° NNW 05:55:22 10° N daylight
21 Dec - 11:36:55 10° N 11:39:59 13° NNE 11:43:07 10° NE daylight
21 Dec - 13:27:24 10° NW 13:34:11 43° NNE 13:41:22 10° E daylight
21 Dec - 15:20:37 10° WNW 15:28:01 60° SSW 15:35:44 10° SE daylight
21 Dec - 17:16:53 10° WSW 17:22:20 20° SSW 17:27:51 10° SSE daylight
21 Dec - 23:08:26 10° S 23:10:08 11° SSE 23:11:48 10° SSE visible
22 Dec - 00:58:35 10° SW 01:04:41 33° SSE 01:10:26 10° E night (unlit)
22 Dec - 02:51:41 10° WSW 02:58:16 69° NNW 03:04:31 10° NE visible
22 Dec - 04:47:41 10° WNW 04:51:52 18° NNW 04:56:01 10° NNE visible
22 Dec - 12:26:59 10° NNW 12:32:54 29° NNE 12:39:10 10° E daylight
22 Dec - 14:19:21 10° WNW 14:26:42 87° SSW 14:34:30 10° ESE daylight
22 Dec - 16:14:24 10° W 16:20:46 28° SSW 16:27:20 10° SSE daylight
22 Dec - 18:15:25 10° SSW 18:15:50 10° SSW 18:16:14 10° SSW daylight
